• In Czech Republic
  • List of Countries
  • For 7 days
  • Water Temperature
  • Satellite Maps
  • Weather Map
  • Weather Widgets
  • user-avatar
    Login

    Hourly Weather Maldegem

    Today, 23 September, Sunday

    Time Temperature Precipitation Wind Pressure Humidity
    00:00 +11°C° 0 mm 3 mps 760 mmHg 92%
    01:00 +11°C° 0.3 mm 3 mps 759 mmHg 92%
    02:00 +11°C° 0.3 mm 3 mps 759 mmHg 92%
    03:00 +11°C° 0.3 mm 3 mps 759 mmHg 93%
    04:00 +11°C° 0.2 mm 3 mps 758 mmHg 93%
    05:00 +12°C° 0.2 mm 2 mps 758 mmHg 93%
    06:00 +12°C° 0 mm 2 mps 758 mmHg 93%
    07:00 +12°C° 1.1 mm 2 mps 758 mmHg 93%
    08:00 +12°C° 1.1 mm 2 mps 758 mmHg 93%
    09:00 +12°C° 1.1 mm 2 mps 757 mmHg 93%
    10:00 +11°C° 1.8 mm 3 mps 758 mmHg 92%
    11:00 +10°C° 1.8 mm 5 mps 758 mmHg 92%
    12:00 +10°C° 1.8 mm 6 mps 758 mmHg 91%
    13:00 +10°C° 0.8 mm 6 mps 759 mmHg 89%
    14:00 +10°C° 0.8 mm 6 mps 760 mmHg 88%
    15:00 +10°C° 0.8 mm 7 mps 761 mmHg 86%
    16:00 +10°C° 0.3 mm 7 mps 762 mmHg 84%
    17:00 +10°C° 0.3 mm 7 mps 764 mmHg 83%
    18:00 +10°C° 0.3 mm 6 mps 765 mmHg 81%
    19:00 +10°C° 0.2 mm 6 mps 766 mmHg 82%
    20:00 +9°C° 0.2 mm 6 mps 767 mmHg 82%
    21:00 +9°C° 0.2 mm 5 mps 768 mmHg 82%
    22:00 +9°C° 0.1 mm 5 mps 769 mmHg 82%
    23:00 +9°C° 0.1 mm 5 mps 770 mmHg 82%

    Tomorrow, 24 September, Monday

    Time Temperature Precipitation Wind Pressure Humidity
    00:00 +8°C° 0.1 mm 5 mps 771 mmHg 81%
    01:00 +8°C° 0 mm 4 mps 772 mmHg 81%
    02:00 +8°C° 0 mm 4 mps 772 mmHg 80%
    03:00 +8°C° 0 mm 4 mps 773 mmHg 80%
    04:00 +8°C° 0 mm 4 mps 773 mmHg 80%
    05:00 +8°C° 0 mm 4 mps 774 mmHg 80%
    06:00 +8°C° 0 mm 4 mps 774 mmHg 80%
    07:00 +10°C° 0.1 mm 4 mps 775 mmHg 75%
    08:00 +12°C° 0.1 mm 5 mps 775 mmHg 71%
    09:00 +14°C° 0.1 mm 5 mps 776 mmHg 66%
    10:00 +14°C° 0.1 mm 5 mps 776 mmHg 63%
    11:00 +15°C° 0.1 mm 6 mps 776 mmHg 60%
    12:00 +15°C° 0.1 mm 6 mps 776 mmHg 57%
    13:00 +15°C° 0 mm 6 mps 776 mmHg 57%
    14:00 +15°C° 0 mm 6 mps 776 mmHg 57%
    15:00 +15°C° 0 mm 6 mps 776 mmHg 57%
    16:00 +13°C° 0 mm 5 mps 776 mmHg 61%
    17:00 +12°C° 0 mm 4 mps 777 mmHg 64%
    18:00 +11°C° 0 mm 4 mps 777 mmHg 68%
    19:00 +10°C° 0 mm 3 mps 777 mmHg 69%
    20:00 +10°C° 0 mm 3 mps 778 mmHg 70%
    21:00 +9°C° 0 mm 3 mps 778 mmHg 72%
    22:00 +9°C° 0 mm 2 mps 778 mmHg 74%
    23:00 +9°C° 0 mm 2 mps 778 mmHg 75%

    Day after tomorrow, 25 September, Tuesday

    Time Temperature Precipitation Wind Pressure Humidity
    00:00 +9°C° 0 mm 1 mps 778 mmHg 77%
    01:00 +9°C° 0 mm 1 mps 778 mmHg 78%
    02:00 +9°C° 0 mm 1 mps 778 mmHg 80%
    03:00 +9°C° 0 mm 1 mps 778 mmHg 81%
    04:00 +8°C° 0 mm 1 mps 778 mmHg 82%
    05:00 +8°C° 0 mm 1 mps 778 mmHg 83%
    06:00 +8°C° 0 mm 1 mps 778 mmHg 84%
    07:00 +10°C° 0 mm 1 mps 778 mmHg 77%
    08:00 +12°C° 0 mm 1 mps 778 mmHg 70%
    09:00 +14°C° 0 mm 1 mps 778 mmHg 64%
    10:00 +15°C° 0 mm 2 mps 778 mmHg 59%
    11:00 +15°C° 0 mm 2 mps 778 mmHg 54%
    12:00 +16°C° 0 mm 2 mps 778 mmHg 50%
    13:00 +17°C° 0 mm 2 mps 777 mmHg 49%
    14:00 +18°C° 0 mm 1 mps 777 mmHg 48%
    15:00 +18°C° 0 mm 1 mps 776 mmHg 47%
    16:00 +15°C° 0 mm 1 mps 776 mmHg 51%
    17:00 +14°C° 0 mm 1 mps 776 mmHg 55%
    18:00 +13°C° 0 mm 1 mps 776 mmHg 59%
    19:00 +12°C° 0 mm 1 mps 776 mmHg 61%
    20:00 +10°C° 0 mm 2 mps 776 mmHg 63%
    21:00 +10°C° 0 mm 2 mps 776 mmHg 64%
    22:00 +9°C° 0 mm 2 mps 776 mmHg 66%
    23:00 +9°C° 0 mm 2 mps 775 mmHg 68%

    26 September, Wednesday

    Time Temperature Precipitation Wind Pressure Humidity
    00:00 +9°C° 0 mm 2 mps 775 mmHg 69%
    01:00 +8°C° 0 mm 2 mps 775 mmHg 70%
    02:00 +8°C° 0 mm 2 mps 774 mmHg 71%
    03:00 +8°C° 0 mm 3 mps 774 mmHg 72%
    04:00 +8°C° 0 mm 3 mps 774 mmHg 72%
    05:00 +8°C° 0 mm 3 mps 774 mmHg 71%
    06:00 +8°C° 0 mm 3 mps 774 mmHg 71%
    07:00 +10°C° 0 mm 3 mps 774 mmHg 65%
    08:00 +12°C° 0 mm 3 mps 774 mmHg 60%
    09:00 +14°C° 0 mm 3 mps 774 mmHg 54%
    10:00 +16°C° 0 mm 3 mps 773 mmHg 50%
    11:00 +17°C° 0 mm 3 mps 773 mmHg 46%
    12:00 +19°C° 0 mm 3 mps 773 mmHg 42%
    13:00 +19°C° 0 mm 3 mps 773 mmHg 42%
    14:00 +19°C° 0 mm 3 mps 772 mmHg 42%
    15:00 +20°C° 0 mm 3 mps 772 mmHg 42%
    16:00 +18°C° 0 mm 3 mps 772 mmHg 46%
    17:00 +16°C° 0 mm 3 mps 772 mmHg 50%
    18:00 +14°C° 0 mm 3 mps 772 mmHg 55%
    19:00 +13°C° 0 mm 3 mps 772 mmHg 56%
    20:00 +13°C° 0 mm 3 mps 772 mmHg 57%
    21:00 +13°C° 0 mm 3 mps 772 mmHg 58%
    22:00 +12°C° 0 mm 3 mps 772 mmHg 58%
    23:00 +12°C° 0 mm 3 mps 772 mmHg 59%

    27 September, Thursday

    Time Temperature Precipitation Wind Pressure Humidity
    00:00 +12°C° 0 mm 3 mps 772 mmHg 59%
    01:00 +11°C° 0 mm 3 mps 772 mmHg 59%
    02:00 +11°C° 0 mm 3 mps 771 mmHg 60%
    03:00 +11°C° 0 mm 3 mps 771 mmHg 60%
    04:00 +11°C° 0 mm 3 mps 771 mmHg 60%
    05:00 +10°C° 0 mm 3 mps 771 mmHg 61%
    06:00 +10°C° 0 mm 3 mps 771 mmHg 61%
    07:00 +12°C° 0 mm 3 mps 771 mmHg 58%
    08:00 +14°C° 0 mm 3 mps 770 mmHg 55%
    09:00 +17°C° 0 mm 3 mps 770 mmHg 51%
    10:00 +18°C° 0 mm 3 mps 770 mmHg 48%
    11:00 +20°C° 0 mm 3 mps 769 mmHg 44%
    12:00 +21°C° 0 mm 3 mps 769 mmHg 41%
    13:00 +21°C° 0 mm 3 mps 768 mmHg 41%
    14:00 +22°C° 0 mm 3 mps 768 mmHg 42%
    15:00 +22°C° 0 mm 3 mps 767 mmHg 42%
    16:00 +20°C° 0 mm 2 mps 767 mmHg 47%
    17:00 +18°C° 0 mm 2 mps 767 mmHg 52%
    18:00 +16°C° 0 mm 2 mps 767 mmHg 57%
    19:00 +16°C° 0 mm 2 mps 767 mmHg 59%
    20:00 +15°C° 0 mm 2 mps 767 mmHg 61%
    21:00 +14°C° 0 mm 2 mps 767 mmHg 63%
    22:00 +14°C° 0 mm 2 mps 766 mmHg 65%
    23:00 +14°C° 0 mm 2 mps 766 mmHg 67%

    28 September, Friday

    Time Temperature Precipitation Wind Pressure Humidity
    00:00 +13°C° 0 mm 2 mps 766 mmHg 69%
    01:00 +13°C° 0 mm 2 mps 765 mmHg 72%
    02:00 +13°C° 0 mm 2 mps 765 mmHg 75%
    03:00 +12°C° 0 mm 2 mps 765 mmHg 78%
    04:00 +12°C° 0 mm 2 mps 765 mmHg 80%
    05:00 +12°C° 0 mm 2 mps 765 mmHg 81%
    06:00 +12°C° 0 mm 1 mps 765 mmHg 83%
    07:00 +14°C° 0 mm 2 mps 765 mmHg 77%
    08:00 +16°C° 0 mm 2 mps 765 mmHg 70%
    09:00 +18°C° 0 mm 2 mps 765 mmHg 64%
    10:00 +19°C° 0 mm 3 mps 765 mmHg 62%
    11:00 +20°C° 0 mm 4 mps 765 mmHg 59%
    12:00 +21°C° 0 mm 5 mps 765 mmHg 57%
    13:00 +20°C° 0 mm 6 mps 765 mmHg 60%
    14:00 +20°C° 0 mm 7 mps 765 mmHg 63%
    15:00 +18°C° 0 mm 8 mps 765 mmHg 66%
    16:00 +17°C° 0 mm 8 mps 766 mmHg 69%
    17:00 +15°C° 0 mm 8 mps 766 mmHg 73%
    18:00 +13°C° 0 mm 8 mps 767 mmHg 76%
    19:00 +13°C° 0 mm 8 mps 767 mmHg 75%
    20:00 +12°C° 0 mm 8 mps 768 mmHg 73%
    21:00 +11°C° 0 mm 8 mps 769 mmHg 72%
    22:00 +11°C° 0 mm 8 mps 769 mmHg 70%
    23:00 +11°C° 0 mm 8 mps 769 mmHg 69%
    Show more